Location: *
(45.0500°N, 12.0500°E)
Time: 04:55:30
(UTC+00:00)

STARLINK-1230 - Pass Details

Date: 09 April 2020
Orbit: 549 x 550 km, 53.0° (Epoch: 01 June)

Event Time Altitude Azimuth Distance (km) Brightness Sun altitude
Rises 19:09:37 0° 302° (WNW) 2,788 9.2 -14.0°
Reaches altitude 10° 19:11:57 10° 308° (NW) 1,889 7.7 -14.4°
Maximum altitude 19:16:07 46° 23° (NNE) 775 4.4 -15.0°
Enters shadow 19:18:28 23° 86° (E) 1,244 4.9 -15.4°
